Regional Weather Roundup
Issued by NWS Charleston, SC

Current Version | Previous Version | Text Only | Print | Product List | Glossary Off
Versions: 1 2 3 4 5 6 7 8 9 10 11 12 13 14 15 16 17 18 19 20 21 22 23 24 25 26 27 28 29 30 31 32 33 34 35 36 37 38 39 40 41 42 43 44 45 46 47 48 49 50

000
ASUS42 KCHS 291428
RWRCHS

REGIONAL WEATHER ROUNDUP
NATIONAL WEATHER SERVICE CHARLESTON SC
1000 AM EDT FRI APR 29 2016

NOTE: "FAIR" INDICATES FEW OR NO CLOUDS BELOW 12,000 FEET WITH NO
SIGNIFICANT WEATHER AND/OR OBSTRUCTIONS TO VISIBILITY.

NOT ALL STATIONS ARE QUALITY CONTROLLED. USE DATA WITH CAUTION...
ESPECIALLY DEWPOINT OBSERVATIONS.

SCZ027-030-031-034>040-042>050-291500-
...SOUTHEAST SOUTH CAROLINA...

CITY           SKY/WX    TMP DP  RH WIND       PRES   REMARKS
N CHARLESTON   SUNNY     78  67  68 NW7       29.97S
WATERFRONT PRK   N/A     76  69  79 VRB3      29.95S
MOUNT PLEASANT FAIR      81  68  65 NW7       29.97S
JOHNS ISLAND   FAIR      82  66  57 NW9       29.97S
PINOPOLIS        N/A     77  70  78 NW5       29.89F
MONCKS CORNER  FAIR      75  61  60 N7        29.98S
SUMMERVILLE    FAIR      79  68  69 N3        29.99S
BEAUFORT MCAS  SUNNY     80  67  64 NW8       29.98F
BEAUFORT ARPT  FAIR      79  64  61 NW7       29.98S HAZE
HILTON HEAD IS SUNNY     79  70  73 N8        30.00S
WALTERBORO     SUNNY     81  64  57 N6        29.99S
ALLENDALE      FAIR      79  64  61 N7        29.98S

...SOUTHERN MIDLANDS AND PEE DEE...

CITY           SKY/WX    TMP DP  RH WIND       PRES   REMARKS
GEORGETOWN     FAIR      77  68  73 NW5       29.98R
KINGSTREE      FAIR      77  64  65 N6        29.98S
ORANGEBURG     SUNNY     80  62  54 N8        29.99S
BARNWELL       FAIR      82  64  54 N3        29.99F
AIKEN          FAIR      77  55  47 N9        30.03S
MANNING        NOT AVBL
COLUMBIA       MOSUNNY   80  57  45 NE7       29.98S
SUMTER         SUNNY     75  64  67 N7        29.96S
FLORENCE       MOSUNNY   72  65  78 N5        29.99S
MYRTLE BEACH   MOSUNNY   77  64  65 NW12      29.98R
N MYRTLE BEACH MOSUNNY   75  67  76 N9        29.96R

$$

GAZ063-065-086>088-099>101-113>116-118-119-134>141-150-291500-
...SOUTHEAST GEORGIA...

CITY           SKY/WX    TMP DP  RH WIND       PRES   REMARKS
SAVANNAH ARPT  MOSUNNY   79  66  64 NW7       29.99F
HUNTER AAF     SUNNY     80  70  70 NW7       29.97S
FORT STEWART   SUNNY     79  68  69 VRB2      29.97F
STATESBORO     SUNNY     83  70  64 N6        29.99F
SYLVANIA       SUNNY     81  69  65 N7        30.00F
CLAXTON        FAIR      80  70  70 NW3       30.00F

...CSRA...CENTRAL AND FAR SOUTHEAST GEORGIA...

CITY           SKY/WX    TMP DP  RH WIND       PRES   REMARKS
THOMSON        SUNNY     79  65  61 NE5       30.04F
AUGUSTA-BUSH   SUNNY     79  60  52 N9        29.99F
AUGUSTA-DANIEL SUNNY     79  56  45 N10       30.01F
SWAINSBORO     FAIR      79  66  65 CALM      30.01F
VIDALIA        SUNNY     79  66  65 N3        30.00F
EASTMAN        FAIR      80  68  65 CALM      30.02F
HAZLEHURST     FAIR      79  70  72 N3        30.00F
ALMA           SUNNY     78  70  76 VRB3      30.01F
WAYCROSS       PTSUNNY   77  72  83 N5        30.01F
JESUP          FAIR      81  73  78 NW5       30.00F
BAXLEY         FAIR      79  72  78 N5        30.00F
BRUNSWICK      MOSUNNY   79  72  78 W7        30.01F
SAINT SIMONS   MOSUNNY   75  71  87 W8        30.00F

$$

SCZ027-028-034-036>038-045-046-048>050-GAZ119-141-291500-
...LAKE AND SUPPLEMENTAL COASTAL OBSERVATIONS...

STATION/POSITION TIME  TEMP    WIND        PRES    WAVE   SWELL
                       AIR SEA DIR/SP/G            HT/PER HT/PER/DIR
                 (UTC) (F)     (DEG/KT/KT) (MB)    (FT/S) (FT/S/D)
WINYAH BAY       1300   73     320/  8     1014.0
LAKE MURRAY      1400   78      10/  1/  7 1014.9F
ACE BASIN NERRS  1300   76     300/  3     1015.0S
FORT PULASKI     1400   75 71  280/ 11/ 12 1015.6F
SAPELO ISLAND    1400   75     300/  7     1016.0S

$$

ANZ835-935-AMZ111-154-330-350-352-354-370-450-454-472-291500-
...C-MAN AND BUOY OBSERVATIONS...

STATION/POSITION TIME  TEMP    WIND        PRES    WAVE   SWELL
                       AIR SEA DIR/SP/G            HT/PER HT/PER/DIR
                 (UTC) (F)     (DEG/KT/KT) (MB)    (FT/S) (FT/S/D)
BUOY 41004       1350   72 72  280/ 12/ 14 1014.1R   3/ 5   2/ 6
BUOY 41008       NOT AVBL
FOLLY BEACH CMAN 1400   79     330/  5/  8 1014.9S
CAPERS NEARSHORE 1408   72 69  320/  6/  8 1014.5S
FRIPP NEARSHORE  1408   74 70  320/  6/ 10 1014.3F


STATION/POSITION TIME  TEMP    WIND        PRES    WAVE   SWELL
                       AIR SEA DIR/SP/G            HT/PER HT/PER/DIR
                 (UTC) (F)     (DEG/KT/KT) (MB)    (FT/S) (FT/S/D)
5E ST. MARYS GA  1321      70                N/A     1/11
FRYING PAN BUOY  1400   69 69  300/ 10/ 12 1014.0R
BUOY 41025       1350   61 69  360/ 17/ 19 1014.2R   3/ 6   2/ 90/ 8
CAPE LOOKOUT NC  1400   66      10/ 12/ 14 1014.4R
BUOY 41002       1350   71 71  200/ 14/ 16 1014.8F   3/ 9   2/100/ 9
BUOY 41010       1320   76 76  210/  8/ 10 1016.7R
ST AUGUSTINE FL  1400   72 69  310/  6/  8 1017.4F


$$




USA.gov is the U.S. government's official web portal to all federal, state and local government web resources and services.